Cuero, Texas, United States (77954)
Lat: 29.09N, Lon: 97.29W
Wx Zone: TXZ224
Local Info
Past Weather Observations for Today

NOTE: This archive is for the closest National Weather Service station to Cuero. Information may differ from the station used for current weather conditions.

Click here for Long-term Archive

Time Weather Temperature Dewpoint Humidity Pressure Winds Precip Visibility
21:51
Clear
77°F / 25°C 75°F / 24°C 94% 29.8 in
(1009 mb)
E 4.6 mph
(E 7 kph)
- 10SM
20:51
Clear
79°F / 26°C 75°F / 24°C 89% 29.8 in
(1009 mb)
E 5.8 mph
(E 9 kph)
- 10SM
19:51
Clear
79°F / 26°C 75°F / 24°C 89% 29.8 in
(1009 mb)
SE 5.8 mph
(SE 9 kph)
- 10SM
18:51
Overcast
81°F / 27°C 75°F / 24°C 84% 29.77 in
(1008 mb)
SE 9.2 mph
(SE 15 kph)
- 10SM
17:51
Overcast
84°F / 29°C 75°F / 24°C 74% 29.77 in
(1008 mb)
SE 12.7 mph
(SE 20 kph)
- 10SM
16:51
Mostly Cloudy
84°F / 29°C 75°F / 24°C 74% 29.77 in
(1008 mb)
SE 12.7 mph
(SE 20 kph)
- 10SM
15:51
Partly Cloudy
88°F / 31°C 75°F / 24°C 66% 29.77 in
(1008 mb)
SE 11.5 mph
(SE 19 kph)
- 10SM
14:51
Partly Cloudy
88°F / 31°C 73°F / 23°C 62% 29.77 in
(1008 mb)
SE 8.1 mph
(SE 13 kph)
- 10SM
13:51
Partly Cloudy
88°F / 31°C 72°F / 22°C 59% 29.8 in
(1009 mb)
SE 9.2 mph
(SE 15 kph)
- 10SM
12:51
Partly Cloudy
88°F / 31°C 72°F / 22°C 59% 29.83 in
(1010 mb)
E 5.8 mph
(E 9 kph)
- 10SM
11:51
Partly Cloudy
88°F / 31°C 72°F / 22°C 59% 29.86 in
(1011 mb)
ENE 3.5 mph
(ENE 6 kph)
- 10SM
10:51
Partly Cloudy
84°F / 29°C 73°F / 23°C 70% 29.89 in
(1012 mb)
SE 4.6 mph
(SE 7 kph)
- 10SM
09:51
Partly Cloudy
84°F / 29°C 73°F / 23°C 70% 29.89 in
(1012 mb)
E 5.8 mph
(E 9 kph)
- 10SM
09:16
Partly Cloudy
82°F / 28°C 75°F / 24°C 79% 29.89 in
(1012 mb)
ENE 5.8 mph
(ENE 9 kph)
- 9SM
08:51
Partly Cloudy
Hazy
81°F / 27°C 75°F / 24°C 84% 29.89 in
(1012 mb)
ENE 6.9 mph
(ENE 11 kph)
- 6SM
08:01
Clear
Fog And Mist
75°F / 24°C 75°F / 24°C 100% 29.89 in
(1012 mb)
NE 4.6 mph
(NE 7 kph)
- 5SM
07:58
Mostly Cloudy
Fog And Mist
75°F / 24°C 75°F / 24°C 100% 29.89 in
(1012 mb)
NNE 4.6 mph
(NNE 7 kph)
- 2SM
07:56
Mostly Cloudy
Fog And Mist
75°F / 24°C 75°F / 24°C 100% 29.89 in
(1012 mb)
NE 4.6 mph
(NE 7 kph)
- 2SM
07:51
Overcast
Fog And Mist
75°F / 24°C 73°F / 23°C 94% 29.89 in
(1012 mb)
NE 5.8 mph
(NE 9 kph)
- 1 1/4SM
07:43
Overcast
Fog
75°F / 24°C 73°F / 23°C 94% 29.89 in
(1012 mb)
N 5.8 mph
(N 9 kph)
- 1/2SM
06:51
Obscured
Fog
73°F / 23°C 72°F / 22°C 94% 29.89 in
(1012 mb)
N 5.8 mph
(N 9 kph)
- M1/4SM
05:51
Obscured
Fog
73°F / 23°C 72°F / 22°C 94% 29.89 in
(1012 mb)
N 4.6 mph
(N 7 kph)
- 1/4SM
05:02
Obscured
Fog
73°F / 23°C 72°F / 22°C 94% 29.86 in
(1011 mb)
N 4.6 mph
(N 7 kph)
- 1/4SM
04:51
Obscured
Fog
73°F / 23°C 72°F / 22°C 94% 29.86 in
(1011 mb)
N 5.8 mph
(N 9 kph)
- 1/2SM
04:38
Obscured
Fog
73°F / 23°C 72°F / 22°C 94% 29.86 in
(1011 mb)
N 4.6 mph
(N 7 kph)
- 1/2SM
04:30
Obscured
Fog And Mist
73°F / 23°C 72°F / 22°C 94% 29.86 in
(1011 mb)
N 4.6 mph
(N 7 kph)
- 1SM
04:01
Partly Cloudy
Fog And Mist
73°F / 23°C 72°F / 22°C 94% 29.86 in
(1011 mb)
N 4.6 mph
(N 7 kph)
- 1 1/2SM
03:51
Clear
Fog And Mist
73°F / 23°C 72°F / 22°C 94% 29.86 in
(1011 mb)
N 4.6 mph
(N 7 kph)
- 1 1/2SM
02:58
Clear
Fog And Mist
73°F / 23°C 72°F / 22°C 94% 29.89 in
(1012 mb)
NNW 5.8 mph
(NNW 9 kph)
- 1 1/2SM
02:51
Clear
Fog And Mist
73°F / 23°C 72°F / 22°C 94% 29.89 in
(1012 mb)
N 3.5 mph
(N 6 kph)
- 3/4SM
02:42
Clear
Fog And Mist
73°F / 23°C 72°F / 22°C 94% 29.89 in
(1012 mb)
Calm - 3/4SM
02:05
Clear
Fog And Mist
73°F / 23°C 73°F / 23°C 100% 29.89 in
(1012 mb)
NW 5.8 mph
(NW 9 kph)
- 1 3/4SM
01:51
Clear
Fog And Mist
73°F / 23°C 73°F / 23°C 100% 29.89 in
(1012 mb)
NW 6.9 mph
(NW 11 kph)
- 2SM
01:42
Clear
Fog And Mist
73°F / 23°C 72°F / 22°C 94% 29.89 in
(1012 mb)
NW 6.9 mph
(NW 11 kph)
- 2SM
01:30
Partly Cloudy
Fog And Mist
73°F / 23°C 73°F / 23°C 100% 29.89 in
(1012 mb)
NW 5.8 mph
(NW 9 kph)
- 1 3/4SM
01:20
Partly Cloudy
Fog And Mist
73°F / 23°C 73°F / 23°C 100% 29.89 in
(1012 mb)
NW 4.6 mph
(NW 7 kph)
- 1 1/4SM
01:11
Obscured
Fog
73°F / 23°C 72°F / 22°C 94% 29.89 in
(1012 mb)
NW 6.9 mph
(NW 11 kph)
- 1/2SM
00:51
Clear
Fog And Mist
73°F / 23°C 72°F / 22°C 94% 29.89 in
(1012 mb)
W 3.5 mph
(W 6 kph)
- 1 1/4SM
00:40
Clear
Fog And Mist
73°F / 23°C 72°F / 22°C 94% 29.89 in
(1012 mb)
W 3.5 mph
(W 6 kph)
- 1SM
00:35
Obscured
Fog And Mist
73°F / 23°C 72°F / 22°C 94% 29.89 in
(1012 mb)
WNW 3.5 mph
(WNW 6 kph)
- 3/4SM
00:27
Clear
Fog And Mist
73°F / 23°C 72°F / 22°C 94% 29.86 in
(1011 mb)
WNW 4.6 mph
(WNW 7 kph)
- 3/4SM
00:23
Clear
Fog And Mist
73°F / 23°C 72°F / 22°C 94% 29.86 in
(1011 mb)
Calm - 1 3/4SM
00:07
Clear
Fog And Mist
75°F / 24°C 73°F / 23°C 94% 29.86 in
(1011 mb)
Calm - 3SM
Time Weather Temperature Dewpoint Humidity Pressure Winds Precip Visibility


Weather for websites

WeatherForYou.com, LLC is not responsible for any damages or problems caused by this service. Current weather conditions are obtained from the closest station including government and personal stations which may have varying degrees of accuracy. Weather forecasts are derived from the NOAA NDFD. Like all things, this site belongs to Jesus Christ... He just trusts me to maintain it. If you have any questions or comments email webmaster@weatherforyou.com

Copyright © 2014, WeatherForYou.com LLC. All rights reserved.